Theta_e
317 317 317 317 317 317 316 316 316 316 316 316 317 317 315 316 317 316 315 315 315 314 312 312 312 312 312 312 311 311 311 311 312 311 311 311 311 311 311 311 311 311 310 311 311 311 309 303 299 299 298 298 298 297 298 297 296 296 295 295 294 293 292 292 292 292 292 291 290 290 289 288 288 288 287 287 286 286 286 286 286 286 286 286 286 285 284
316 316 316 316 316 316 316 316 316 315 316 316 316 316 315 315 316 315 315 315 315 314 312 312 312 311 312 311 311 311 312 312 312 312 311 310 310 310 309 309 309 309 308 308 308 308 308 308 305 300 298 299 298 298 298 297 296 296 295 294 294 293 292 292 293 292 291 290 290 289 288 288 287 287 286 286 286 285 285 285 285 285 285 285 285 285 284
316 316 315 315 316 315 315 316 315 315 315 315 315 315 315 315 315 315 315 315 315 313 313 313 312 312 312 312 312 312 312 311 311 310 308 307 306 305 305 304 305 305 306 307 307 307 308 308 306 301 300 301 300 298 298 297 296 295 294 294 293 293 292 293 292 291 291 290 289 288 288 287 287 286 286 285 285 285 284 284 284 284 284 284 284 283 283
318 317 316 315 314 314 314 315 314 315 315 314 314 314 314 315 315 315 315 315 315 313 312 313 313 312 312 312 312 311 310 308 306 304 303 302 302 302 302 301 301 302 303 304 304 306 306 306 304 302 302 301 299 298 298 297 297 295 294 293 293 292 292 292 291 291 290 289 288 287 287 286 286 285 285 284 284 284 284 283 283 283 283 283 282 282 281
316 316 316 315 315 316 316 316 315 314 313 314 314 313 314 314 315 315 315 314 312 309 308 308 308 308 309 310 308 306 303 301 300 300 301 300 300 301 301 301 300 300 300 300 301 302 303 303 303 304 304 302 300 299 299 298 296 295 293 293 292 292 292 291 291 290 289 288 287 286 286 285 285 284 284 284 283 283 283 283 282 282 282 282 281 281 281
313 314 315 315 316 317 318 319 317 314 314 315 314 314 314 313 311 310 310 308 304 302 301 301 301 301 303 304 302 299 299 299 298 298 298 298 299 299 299 300 299 299 299 298 298 298 299 300 301 303 304 302 301 301 299 297 295 294 293 292 292 292 291 290 290 289 288 287 286 286 285 285 284 284 283 283 283 282 282 282 281 281 281 281 281 280 280
312 312 313 315 315 315 317 317 312 309 310 310 311 313 311 304 300 301 302 301 299 298 299 298 297 297 299 301 300 298 298 298 296 296 296 296 297 297 298 298 298 298 299 298 297 297 297 298 299 300 301 301 301 300 298 296 295 294 293 292 291 291 290 290 289 288 287 286 286 285 284 284 283 283 282 282 282 281 281 281 281 281 280 280 280 280 280
310 310 311 313 313 314 316 311 303 300 301 300 302 308 305 295 294 298 299 297 297 296 297 297 295 294 296 300 300 298 296 296 296 296 296 295 296 296 297 297 297 298 298 297 296 296 296 296 296 296 296 297 299 299 297 295 294 293 292 291 291 290 290 289 288 287 287 286 285 284 283 283 282 282 281 281 281 281 281 280 280 280 280 279 279 279 279
311 311 311 310 311 313 311 304 298 297 297 296 298 304 300 293 293 297 296 296 296 295 295 295 294 293 295 298 299 296 295 296 296 296 295 295 295 296 296 296 297 297 297 297 297 296 296 296 294 293 293 294 295 296 294 293 292 291 291 290 290 289 289 288 288 287 286 285 284 283 283 282 281 281 281 281 280 280 280 279 279 279 278 278 278 278 278
310 311 310 310 312 311 302 296 295 296 295 294 296 302 300 294 293 295 295 295 295 294 294 294 294 294 294 295 295 294 294 296 296 295 295 294 295 295 295 295 296 296 297 297 297 297 297 296 295 294 293 293 294 293 292 291 291 290 290 289 289 289 288 288 287 286 285 285 284 283 282 281 281 281 280 280 279 279 279 279 278 278 278 277 277 277 277
305 306 306 306 309 306 297 294 295 295 293 294 298 304 302 294 292 294 295 294 294 294 294 294 293 293 293 293 293 294 295 296 295 294 294 294 294 294 295 295 295 296 297 297 297 297 296 297 296 295 294 294 294 292 291 290 290 289 289 289 289 289 288 287 287 286 285 284 283 282 281 281 280 280 280 279 279 279 279 278 278 277 277 277 276 276 277
300 302 302 302 305 301 293 293 294 293 293 297 301 306 302 293 292 294 293 292 293 293 293 293 292 292 293 293 293 294 295 295 294 294 294 293 294 294 294 295 295 296 296 296 295 296 296 296 297 295 294 294 293 292 290 290 289 289 289 289 289 288 288 287 286 285 284 284 283 282 281 280 280 279 279 278 278 278 278 277 277 276 276 276 276 275 275
299 299 299 299 301 298 292 292 293 292 294 297 298 299 296 292 292 293 292 291 292 292 292 292 291 292 293 293 293 294 294 293 293 293 293 293 293 294 294 294 295 295 295 295 295 295 296 296 297 296 294 293 293 292 291 290 290 290 289 289 288 288 287 287 286 285 284 283 283 281 281 280 279 279 278 278 277 277 277 276 276 275 275 275 275 274 274
296 296 295 295 297 297 292 291 292 292 294 294 293 294 294 293 292 292 291 291 291 291 291 291 291 292 292 292 293 293 292 292 291 292 292 292 293 293 293 294 294 294 294 294 294 294 295 295 296 296 293 292 293 292 290 290 292 291 289 289 288 288 287 286 285 284 283 283 282 281 280 280 279 278 277 277 277 276 276 275 275 274 274 274 274 273 273
293 293 292 292 294 295 292 290 291 292 293 292 292 293 294 292 291 291 290 290 290 290 290 290 290 290 290 290 291 290 290 290 290 290 291 292 293 293 293 293 293 293 293 293 293 294 294 294 295 295 292 290 291 291 289 291 291 289 288 288 287 287 286 285 284 283 282 282 281 280 279 279 278 277 276 275 275 275 275 274 274 273 273 272 273 272 272
292 292 292 293 293 292 291 290 290 291 292 292 293 292 291 290 290 290 289 288 288 289 289 288 289 289 288 289 288 288 288 288 288 289 290 291 291 292 292 292 292 292 292 293 293 293 293 293 294 295 292 290 289 289 291 292 291 289 288 288 286 286 285 284 283 282 281 281 280 279 279 278 277 276 275 275 274 274 274 274 273 272 272 272 272 271 271
292 291 292 292 291 290 289 289 290 292 293 293 291 290 289 289 288 289 288 287 287 287 288 287 287 287 287 287 286 286 286 286 287 288 288 289 289 290 290 290 291 291 291 292 292 292 293 293 293 294 293 290 288 289 291 292 291 290 288 287 286 285 284 282 281 281 280 279 279 278 278 277 277 275 274 274 273 273 273 273 272 272 272 272 272 271 271
290 290 290 290 289 289 288 288 291 294 294 291 289 288 288 288 287 287 287 286 286 286 286 286 286 285 285 284 284 284 284 285 285 286 286 287 287 288 288 288 288 289 289 290 290 290 290 291 291 292 293 291 289 290 291 290 289 289 288 287 285 284 282 281 280 279 278 278 277 277 277 277 276 275 274 274 273 273 273 273 272 272 272 272 272 272 271
289 289 289 288 288 288 287 288 291 293 292 289 288 287 287 286 286 286 285 285 285 285 285 284 284 283 283 283 282 282 282 282 283 284 284 284 285 285 285 285 285 285 285 285 286 286 286 287 288 289 291 291 290 291 291 289 288 288 287 286 285 283 281 280 279 278 277 276 276 275 275 275 275 275 274 274 273 273 273 273 273 273 272 272 272 272 272
288 288 288 287 287 288 287 287 289 290 290 288 286 286 285 285 284 284 284 284 283 283 282 282 282 281 281 281 280 280 280 280 281 281 282 282 282 282 282 281 281 281 282 282 282 282 282 283 284 285 287 289 290 291 291 290 288 286 286 285 284 283 281 279 278 277 277 276 275 274 274 274 274 274 273 274 274 273 273 273 273 273 273 272 272 273 272
288 288 288 288 287 287 288 288 288 289 288 286 285 284 284 284 283 282 282 282 281 280 280 279 279 279 279 278 278 278 278 278 279 279 279 279 279 279 279 279 278 278 279 279 279 279 279 279 280 282 285 287 288 289 289 289 287 285 285 284 283 282 280 278 277 276 276 275 274 274 274 274 274 274 274 273 274 274 274 274 274 274 274 273 273 273 273
288 288 288 288 288 288 287 288 290 290 287 284 284 284 283 282 282 281 280 279 278 278 278 278 278 277 277 276 276 276 276 276 277 277 277 277 277 277 276 276 276 276 276 277 276 276 276 276 278 280 282 282 283 284 285 287 286 284 284 282 281 280 278 277 276 275 274 274 273 273 273 273 273 273 273 273 273 274 274 274 274 274 274 274 274 274 274
288 288 288 288 288 288 287 288 290 289 285 282 283 283 282 281 280 278 278 277 276 276 276 276 276 275 275 274 274 274 274 275 275 275 275 275 275 274 274 274 274 274 274 273 273 274 274 275 277 277 277 277 277 278 280 283 284 284 283 281 280 278 277 276 276 275 274 274 273 273 273 273 273 272 272 272 273 274 274 273 274 274 275 274 274 274 274
288 288 289 289 288 288 288 287 286 284 283 282 281 280 279 278 278 277 276 275 275 275 275 275 274 274 273 273 273 273 273 273 273 273 273 273 272 272 272 271 271 271 271 271 272 272 273 274 274 274 274 274 275 275 277 279 282 283 283 281 280 279 278 276 276 275 274 273 273 272 272 272 272 272 272 272 273 273 274 274 274 275 275 275 275 275 274
288 288 287 286 286 286 285 283 281 281 280 279 278 277 276 276 276 275 274 274 274 274 274 273 272 272 272 272 272 272 272 272 272 272 271 271 270 270 270 269 269 269 269 269 270 270 270 270 271 271 271 272 273 274 275 277 279 281 281 281 281 280 279 277 275 274 273 273 272 272 272 272 272 272 272 272 273 273 274 274 275 275 275 275 276 275 274
285 283 281 280 281 281 280 280 281 280 277 275 274 274 274 275 275 274 274 273 273 273 272 271 271 271 271 271 271 270 270 270 270 270 269 269 268 268 267 267 267 267 267 267 267 267 267 268 268 269 270 271 272 273 275 276 278 280 281 281 281 281 280 278 275 274 273 273 272 272 272 272 272 272 272 272 273 273 274 275 275 276 276 276 276 275 275
278 277 278 281 284 283 281 280 279 276 273 272 273 273 273 273 273 273 272 272 271 271 271 270 270 270 270 269 269 268 268 268 268 267 267 266 266 266 266 266 266 266 265 265 265 265 266 267 267 268 269 270 270 272 274 276 278 279 280 280 280 280 280 278 276 274 273 273 272 272 272 272 272 272 272 272 273 274 275 275 276 276 276 276 276 276 275
274 273 275 279 281 280 277 275 273 272 271 272 272 272 272 272 271 271 270 270 270 270 270 270 269 269 268 268 267 266 266 266 265 265 265 265 265 265 265 265 264 264 264 264 264 264 265 266 266 267 268 269 270 272 274 276 278 279 280 280 280 280 279 277 276 274 273 272 272 272 272 271 271 272 272 273 273 274 275 276 276 276 276 276 276 276 276
271 270 271 272 273 273 272 271 271 271 271 271 271 271 271 270 269 269 269 269 269 269 269 268 268 267 266 266 265 264 264 264 264 264 264 264 264 264 264 264 263 263 263 264 264 264 265 266 267 268 269 270 271 272 273 274 276 278 279 279 279 279 279 277 275 274 273 272 272 272 271 271 271 272 272 273 273 274 275 276 276 276 275 276 276 276 277
268 268 269 269 269 269 270 270 270 270 270 270 270 270 269 269 268 268 268 268 268 267 267 266 266 265 264 264 263 263 263 263 263 263 263 263 263 263 263 263 263 263 263 264 264 266 267 268 269 269 269 270 270 271 272 274 276 277 279 279 279 279 278 277 275 274 273 272 271 271 271 271 271 272 272 273 274 275 275 275 275 275 275 275 275 276 276
266 267 267 268 269 269 269 269 269 269 269 269 269 268 268 267 267 267 267 267 266 266 265 264 264 263 263 262 262 262 262 262 262 262 263 263 263 263 263 263 263 263 264 265 266 267 267 268 268 268 268 269 270 271 272 274 275 276 278 278 278 278 278 277 275 273 272 272 271 271 271 271 271 272 273 273 274 275 275 275 275 274 275 275 275 275 275
266 268 269 269 268 267 267 267 268 268 268 267 267 266 266 266 266 266 266 265 265 264 263 263 262 262 262 262 261 261 262 262 262 262 262 262 262 263 263 263 263 264 265 265 266 266 267 267 268 268 268 269 269 270 271 272 273 274 275 276 277 277 277 277 275 273 272 271 271 271 271 271 272 272 272 273 274 274 274 274 274 274 274 273 273 274 274
266 270 271 269 266 266 266 266 267 266 266 265 265 265 265 265 265 264 264 263 263 263 262 262 261 261 261 261 261 261 261 261 261 262 262 262 262 263 263 263 264 264 265 265 266 266 267 267 267 267 267 267 268 268 269 271 272 273 274 275 276 276 275 275 274 272 271 271 270 271 271 271 271 272 272 273 273 273 273 273 273 272 272 272 271 271 272
265 267 267 265 264 265 265 265 265 264 264 264 264 264 264 263 263 263 262 262 262 261 261 261 261 261 261 261 261 261 261 261 261 262 262 262 263 263 263 263 264 264 265 265 266 266 266 266 266 265 266 266 266 267 268 269 270 271 272 274 275 274 274 273 273 272 270 270 270 270 270 271 271 272 272 272 272 272 271 271 271 270 270 269 268 269 270
263 263 263 263 263 263 263 263 263 263 263 262 262 262 262 262 262 261 261 261 261 261 261 261 260 261 261 261 261 261 261 262 262 262 262 263 263 263 263 263 264 264 265 265 264 264 265 265 264 264 264 264 264 265 267 268 269 270 272 273 274 273 272 272 271 270 270 270 270 270 270 270 271 271 271 271 271 270 270 270 269 269 267 266 267 269 270
262 262 261 262 261 261 261 262 261 261 261 261 261 261 261 261 260 260 260 260 260 260 260 260 261 261 261 261 261 262 262 262 263 263 263 263 263 263 263 263 264 264 263 263 264 264 264 263 263 262 263 263 264 265 266 267 268 270 271 272 272 271 271 270 270 269 269 269 269 269 269 270 270 270 270 270 269 269 269 268 267 266 266 266 268 269 269
261 261 260 260 260 260 260 260 260 260 260 260 260 260 260 259 260 260 259 260 260 260 260 261 261 261 261 262 262 262 262 263 263 263 262 262 262 262 263 263 263 263 263 263 263 263 262 261 262 262 263 264 264 265 266 267 268 269 270 271 270 270 269 269 268 268 268 268 268 268 269 269 268 268 268 268 268 268 267 266 265 265 265 266 267 266 265
260 260 260 260 260 259 259 260 259 259 259 259 259 259 259 259 259 259 259 260 260 260 261 261 261 262 262 262 262 262 263 262 262 262 262 262 262 262 262 262 262 262 262 262 261 261 261 261 262 263 263 264 264 265 266 267 268 269 269 269 268 268 268 267 267 267 267 267 267 267 267 267 267 267 267 267 266 266 265 265 264 264 265 265 264 263 263
259 259 259 259 259 258 259 259 259 258 258 258 258 258 258 258 259 259 259 260 260 261 261 262 262 262 262 262 262 262 262 262 261 261 261 261 261 261 261 261 261 261 261 260 260 261 261 262 262 263 263 264 264 265 266 267 267 268 267 267 267 267 266 266 266 266 266 266 266 266 266 266 266 265 265 265 264 264 264 263 263 263 263 263 262 262 263
259 258 258 258 258 258 258 258 258 258 258 258 258 258 258 258 259 260 260 261 261 262 262 262 262 262 262 262 262 261 261 261 260 260 261 261 260 260 260 260 261 261 260 260 261 261 261 262 262 262 263 263 264 264 265 266 266 266 266 266 266 265 265 265 265 264 264 265 265 265 265 264 264 264 263 263 263 263 262 262 262 262 262 261 261 261 262
258 258 258 258 258 258 258 258 258 258 258 258 258 258 258 259 260 260 261 262 262 262 262 262 262 262 262 262 261 260 260 260 260 260 260 260 259 259 260 260 260 260 260 261 261 261 261 262 262 262 262 263 263 264 264 265 265 264 264 264 264 264 264 263 263 263 263 263 263 263 263 263 262 262 262 262 262 262 262 261 261 261 261 261 261 261 262
258 258 258 257 257 257 257 257 257 257 257 257 258 259 259 260 261 261 262 262 262 262 262 262 262 262 261 260 260 260 259 259 260 260 260 260 259 259 259 260 260 260 260 260 261 261 261 261 261 261 262 262 262 263 263 263 263 263 263 263 263 263 263 262 262 262 263 262 262 262 262 262 261 261 261 261 261 261 261 260 260 260 260 260 261 261 262
257 258 257 257 257 257 257 257 257 257 257 258 259 259 260 261 261 262 262 262 262 262 262 262 261 260 260 259 259 259 259 259 260 259 259 259 260 259 259 259 260 260 260 260 260 260 260 261 261 261 261 262 262 262 262 262 262 262 262 262 262 262 262 262 262 262 262 262 261 261 261 261 261 260 260 260 260 260 260 260 260 260 260 260 261 262 262
257 257 257 257 257 256 256 257 257 257 258 259 259 260 260 261 261 261 262 261 261 261 261 261 260 260 259 259 259 259 259 259 259 259 259 259 259 259 259 259 259 259 259 260 260 260 260 260 261 261 262 262 262 262 262 261 261 261 261 261 261 261 261 261 261 261 261 261 261 261 261 260 260 260 260 260 259 259 259 260 260 260 260 260 261 261 262
257 257 256 256 256 256 256 257 257 257 258 259 259 260 261 261 261 261 261 261 261 261 261 260 260 259 259 259 259 259 259 259 259 258 258 258 258 258 258 259 259 259 259 260 260 260 260 260 260 261 261 261 261 261 261 261 261 261 260 260 260 260 260 260 260 260 260 260 260 260 260 260 260 260 259 259 259 259 259 259 259 260 261 261 261 261 262
256 256 256 256 256 256 256 257 257 258 259 259 260 261 261 261 261 261 261 261 261 260 260 260 260 259 259 259 259 258 259 259 258 258 258 258 258 258 258 259 259 259 259 259 260 260 260 260 260 260 260 260 260 260 260 260 260 260 260 260 260 260 260 260 260 260 260 260 260 260 260 260 259 259 259 259 259 259 258 258 259 260 261 262 262 262 262
256 255 255 255 255 256 257 257 257 258 259 260 260 261 261 261 261 261 261 260 260 260 260 260 259 259 259 259 258 258 258 258 258 258 258 258 258 258 258 258 259 259 259 259 259 259 260 260 260 260 260 260 260 259 259 259 259 259 259 259 260 259 259 260 260 259 259 259 259 259 259 259 259 259 260 259 259 259 259 259 260 261 261 262 262 262 262
255 255 255 256 256 256 257 258 259 259 260 260 260 260 260 260 261 260 260 260 260 260 260 260 259 259 259 259 258 258 258 258 257 257 258 258 258 258 258 258 258 258 258 258 258 259 259 259 259 259 259 259 259 259 259 259 259 259 259 259 259 259 259 260 260 260 260 260 260 260 260 259 260 260 260 260 260 260 260 260 261 261 261 262 262 262 262
255 255 256 256 257 257 258 259 260 260 260 260 260 260 260 260 260 260 260 260 260 260 260 260 259 259 259 258 258 258 258 258 257 257 257 258 258 258 258 258 258 258 258 258 258 258 258 258 259 259 259 258 258 258 258 258 258 259 259 258 259 259 259 260 260 260 260 260 260 260 260 260 260 260 260 260 260 260 261 261 261 261 262 262 262 262 262
256 256 256 257 258 258 259 260 259 259 260 260 260 260 260 260 260 260 260 260 260 260 260 259 259 259 258 258 258 258 258 258 258 257 257 257 257 257 257 257 257 257 257 257 257 257 258 258 258 258 258 258 258 257 258 258 258 258 258 258 259 259 260 260 260 261 261 261 261 261 261 261 261 261 261 261 261 261 261 262 262 262 262 262 262 262 262
256 256 257 258 258 259 260 260 259 259 260 260 259 260 260 260 259 259 259 259 259 259 259 259 259 259 258 258 258 258 258 258 257 257 257 257 257 257 257 257 257 257 257 257 257 257 257 257 258 258 258 258 258 258 258 258 258 258 259 259 259 260 261 261 262 262 262 262 262 262 262 262 262 262 262 262 262 262 262 262 262 262 262 262 262 262 262
257 258 258 259 259 259 259 259 259 259 259 259 259 259 259 259 259 259 259 259 259 259 259 259 259 258 258 258 258 257 258 258 257 257 257 257 257 257 257 258 258 258 257 257 257 257 257 258 259 259 260 260 260 260 260 260 260 260 260 260 260 261 261 262 262 262 262 262 262 262 262 262 262 262 262 262 262 262 262 262 262 262 262 262 262 262 262
Wind_Speed
19 19 21 21 19 18 18 19 20 20 19 19 19 20 21 17 16 17 15 17 20 16 14 19 22 22 22 21 20 20 20 19 17 17 17 15 16 15 10 9 10 9 10 11 11 11 12 13 17 21 24 28 30 32 36 37 36 37 36 35 37 38 37 38 42 44 44 43 42 41 40 39 39 40 41 41 40 41 42 42 43 43 44 45 44 44 43
17 18 20 21 21 21 20 20 21 21 22 24 24 24 24 24 24 24 22 24 25 19 18 20 21 20 20 19 20 21 22 23 22 22 19 15 15 15 13 11 10 9 11 12 12 13 13 12 15 17 21 26 27 31 35 35 35 37 36 36 37 36 37 42 44 43 39 38 37 38 38 39 40 40 40 40 40 41 41 42 42 43 43 43 44 44 43
13 16 18 19 19 20 21 21 21 22 24 25 25 23 22 22 24 26 27 27 23 18 20 23 23 22 21 21 23 24 23 22 20 17 15 15 16 17 17 17 16 14 12 12 13 14 14 14 16 17 20 25 28 30 31 32 35 36 34 35 36 36 40 43 41 37 36 36 37 38 39 39 39 39 39 39 40 40 40 41 41 42 43 43 43 43 43
8 11 15 18 18 19 21 22 23 25 25 23 22 21 20 21 23 25 24 21 16 15 18 21 21 20 20 22 22 18 15 14 15 16 16 16 16 16 17 18 18 19 18 15 15 15 15 17 18 19 23 25 25 26 29 33 34 32 30 32 34 37 39 38 34 33 35 36 36 37 37 38 38 38 38 38 39 39 40 40 41 41 42 42 42 41 41
7 9 13 15 15 14 14 17 22 26 26 24 22 21 22 22 20 18 16 12 9 11 12 13 14 15 15 14 10 9 12 15 16 14 13 14 14 15 15 17 17 18 17 16 16 16 17 19 23 28 30 26 25 28 31 32 28 26 29 32 33 34 34 32 32 33 34 35 35 36 37 37 37 37 38 39 39 40 40 40 40 40 40 40 40 40 40
9 12 14 13 11 10 7 7 14 22 25 25 24 21 20 17 11 9 8 7 13 16 16 16 16 16 15 10 9 12 12 13 14 15 14 14 15 14 14 15 16 16 15 16 18 22 25 27 31 35 34 29 29 32 29 24 23 26 30 31 31 31 30 29 31 32 33 34 35 35 35 36 36 37 39 39 39 39 39 39 39 39 40 40 40 40 41
10 11 13 11 9 9 5 2 3 7 11 12 15 15 11 9 12 14 14 16 17 16 15 14 14 18 18 7 9 14 15 14 15 17 16 17 17 16 15 16 16 16 16 16 18 23 29 33 34 33 32 29 29 29 25 21 23 26 28 28 28 28 27 28 30 31 33 34 33 33 34 35 36 37 38 38 37 38 38 39 40 40 40 41 40 40 40
8 9 11 12 10 6 2 6 13 13 9 13 14 7 6 13 13 11 13 14 14 15 15 14 14 19 18 5 6 15 18 16 16 16 16 17 17 15 15 16 16 17 17 18 19 23 29 34 33 31 31 29 25 24 21 20 21 23 24 24 24 25 26 27 30 32 33 33 33 33 35 35 36 37 37 37 37 37 37 37 37 38 38 39 40 39 39
7 10 13 14 14 11 3 4 9 8 4 7 8 3 5 12 12 10 12 13 14 15 14 14 15 19 15 6 5 15 20 18 16 15 14 16 16 15 16 17 19 22 24 25 26 28 31 33 32 32 33 28 18 13 11 12 14 16 18 20 21 23 25 27 30 32 33 34 34 34 35 36 36 36 36 36 36 36 36 35 35 36 36 36 37 38 38
5 10 11 10 12 9 2 3 5 4 5 9 8 7 2 8 12 11 12 14 16 16 14 15 16 16 13 9 9 15 19 18 17 17 16 16 16 16 17 19 22 26 29 29 30 31 30 32 33 32 30 24 14 6 4 6 10 13 15 18 20 22 24 26 28 30 32 33 34 34 36 37 36 36 35 35 35 36 37 36 35 35 35 34 35 37 37
6 9 9 7 7 2 5 7 8 7 11 12 6 6 4 7 12 11 12 14 14 15 15 15 15 13 12 11 11 13 17 16 15 17 18 17 18 21 23 22 22 25 29 30 32 31 29 31 35 33 25 18 11 6 4 6 10 13 15 17 18 20 21 23 25 27 29 30 31 32 33 33 33 33 33 33 34 35 35 35 34 34 34 34 34 35 36
8 9 9 7 4 1 6 10 10 11 13 9 2 4 2 8 9 8 11 12 11 11 11 11 11 10 9 12 14 15 15 14 13 14 15 17 18 21 26 28 28 28 29 27 28 28 27 30 37 35 26 17 10 6 4 7 10 12 12 13 15 17 19 21 24 26 28 29 30 31 31 30 29 31 32 32 33 34 34 34 34 34 34 35 34 34 34
7 8 8 6 2 2 6 11 13 14 11 2 2 4 5 7 6 6 9 9 9 9 8 7 7 6 7 10 15 16 15 15 16 15 15 18 21 21 24 29 30 30 29 27 26 27 28 32 37 37 29 22 17 12 7 8 11 10 9 10 12 14 17 19 22 25 27 29 30 30 30 30 30 31 32 33 35 36 34 33 33 33 34 34 33 33 33
4 4 5 7 5 1 9 14 13 11 6 2 3 3 1 3 5 5 5 6 7 8 7 6 7 8 9 10 14 15 15 16 18 17 17 19 22 23 24 26 27 27 27 28 29 30 32 34 36 37 29 23 22 18 12 13 15 11 8 8 10 12 15 18 21 24 26 27 28 29 29 31 31 31 32 33 35 35 33 32 32 32 32 32 32 31 31
5 6 7 8 7 3 11 14 10 6 2 4 6 3 2 2 4 4 4 5 6 7 8 9 9 10 11 11 12 13 15 15 16 17 17 16 17 21 23 25 27 27 24 25 28 31 33 34 37 37 29 21 21 18 15 17 16 9 7 7 8 11 14 17 20 23 24 25 27 28 29 31 31 31 30 31 33 34 33 32 31 30 30 31 31 30 31
4 5 6 5 6 7 9 7 4 4 2 3 2 1 3 3 3 2 4 5 6 7 9 11 11 11 12 11 11 13 14 14 15 15 15 15 16 18 20 24 28 28 24 24 28 32 33 33 34 35 29 22 19 17 18 20 17 10 8 7 7 10 13 16 19 22 24 25 27 28 29 31 30 29 30 31 32 32 32 32 30 28 28 30 29 30 33
4 5 7 8 8 9 9 5 3 5 5 4 4 3 4 3 3 3 3 6 8 8 8 11 12 11 11 12 11 12 13 14 14 14 15 16 17 19 22 24 27 27 25 26 28 30 32 32 31 32 30 23 19 19 21 21 17 13 10 8 9 10 13 15 18 20 22 24 27 29 31 33 32 31 31 31 30 30 31 31 30 28 28 28 28 29 30
7 7 9 9 8 9 11 8 3 4 5 4 4 4 4 4 4 4 4 6 8 8 8 9 10 10 11 12 12 12 13 14 14 13 14 16 17 19 20 23 26 27 27 27 26 26 31 33 31 30 30 24 21 23 25 21 17 15 12 10 11 12 14 16 18 21 22 23 26 28 30 33 33 33 34 33 31 30 30 30 30 28 28 28 27 27 27
6 6 8 8 7 11 13 9 5 5 5 4 5 4 4 5 5 5 5 6 7 7 7 8 9 11 12 12 12 12 12 14 15 13 13 14 15 17 19 22 26 26 23 22 23 25 29 33 32 30 31 28 26 28 29 24 19 16 13 13 13 14 16 17 19 22 24 24 25 27 29 31 31 31 33 33 31 30 30 29 28 27 27 27 26 26 25
7 8 12 11 11 14 14 10 7 6 5 5 5 6 5 5 5 5 5 5 6 6 7 7 8 11 13 12 12 13 12 13 13 13 13 13 15 19 22 24 25 24 21 20 22 24 28 32 33 32 33 32 29 28 29 27 21 17 16 16 17 18 19 19 21 24 25 26 28 29 30 31 31 32 34 35 34 35 37 37 34 31 30 30 30 31 30
7 9 11 11 11 13 12 10 9 7 6 6 6 6 5 5 5 5 5 5 5 6 8 7 7 10 13 12 11 12 13 14 13 12 13 16 18 21 22 23 24 23 22 22 23 25 29 32 34 32 32 31 29 27 27 27 22 19 19 19 19 20 20 21 23 24 25 26 28 30 30 29 30 31 33 35 35 35 38 41 41 39 37 36 36 36 35
8 10 10 9 7 9 10 9 8 8 6 5 5 6 5 5 4 4 6 7 7 8 9 8 7 9 12 13 12 12 13 14 14 14 14 16 19 22 23 24 26 24 22 23 24 26 30 32 31 31 32 33 32 29 28 26 23 22 22 20 19 21 22 23 24 25 25 25 26 28 28 27 26 26 27 30 30 28 30 34 36 36 35 37 38 37 36
11 12 11 8 6 9 13 8 6 6 3 2 5 6 5 4 4 3 5 8 9 10 10 8 8 10 12 14 14 13 14 15 16 18 18 15 16 21 23 23 23 23 24 26 27 29 31 31 30 30 34 38 37 33 30 28 26 25 25 22 19 20 22 24 26 27 26 25 26 26 26 25 24 23 22 24 24 23 23 26 28 27 27 30 35 37 38
14 13 11 7 6 10 12 5 2 3 3 2 4 3 2 5 6 4 5 8 9 10 11 10 10 10 12 14 14 14 16 17 18 20 23 23 23 24 23 21 19 21 24 25 26 29 32 33 33 33 37 42 42 35 29 28 28 28 28 25 22 22 23 25 27 28 27 26 25 25 24 24 24 23 20 19 19 19 18 20 23 23 22 24 28 31 33
10 7 4 2 4 8 7 4 3 3 1 2 2 4 5 7 7 6 7 9 8 8 10 12 12 12 12 13 14 15 16 18 21 23 25 28 28 25 23 22 22 23 25 27 28 32 33 35 36 37 39 44 43 36 30 29 28 29 30 30 27 26 25 25 26 27 26 25 25 25 25 24 24 24 22 19 17 17 17 19 21 22 22 22 24 25 26
2 1 2 2 5 7 4 2 4 2 3 5 5 7 8 9 9 9 10 10 9 9 10 11 13 15 14 13 13 15 16 20 26 26 22 22 23 22 22 25 26 27 28 31 34 35 34 34 35 35 37 43 41 33 30 30 29 29 31 32 31 30 28 27 26 26 27 27 26 26 26 26 25 25 24 23 21 19 19 18 19 21 22 23 24 25 25
3 3 3 4 8 6 1 1 3 6 7 7 7 7 8 10 11 12 13 13 13 14 14 14 15 16 16 15 15 17 19 21 23 22 19 19 20 21 25 29 31 31 33 35 38 37 34 33 33 33 37 43 39 33 32 32 30 31 32 31 30 30 30 29 28 27 27 28 27 26 26 26 25 24 24 24 23 23 21 19 18 19 22 25 26 27 28
3 5 4 2 6 7 4 3 6 8 8 8 7 6 8 10 10 12 13 13 12 12 13 14 14 13 13 14 13 14 17 19 19 18 18 20 23 26 29 30 32 33 35 36 38 37 34 34 34 35 40 42 36 31 32 31 29 30 30 28 27 27 27 28 28 27 26 27 27 26 26 26 25 25 24 24 24 24 23 22 21 21 22 25 28 29 28
4 4 2 2 5 7 8 7 7 7 7 8 8 6 7 9 11 12 13 12 11 11 11 13 13 12 13 14 14 12 13 16 18 19 21 25 27 29 30 32 35 37 35 33 33 32 32 32 31 32 38 38 33 31 34 34 32 32 30 27 27 26 24 26 27 26 25 25 26 26 26 25 25 25 25 25 25 25 23 22 23 23 24 27 30 30 29
5 4 5 6 5 6 7 7 8 8 8 8 8 7 6 7 11 13 14 12 11 12 12 12 13 14 13 13 14 15 16 19 23 25 27 29 29 29 30 31 30 27 25 24 25 26 26 27 28 32 37 38 35 35 36 34 32 32 30 29 28 26 25 25 25 25 24 23 24 25 25 25 25 25 24 24 25 25 24 24 25 25 26 29 30 30 30
7 7 7 6 4 4 7 8 9 10 8 7 9 11 10 9 10 13 15 13 12 12 14 14 14 15 15 15 18 21 22 24 27 29 29 30 30 30 30 28 23 18 19 23 25 26 27 28 31 35 38 38 36 36 34 32 31 29 27 26 26 26 25 24 23 23 23 22 22 24 24 23 24 24 24 24 24 24 24 24 25 25 26 27 28 29 31
8 7 5 3 3 6 8 8 8 10 10 8 9 11 10 9 11 14 14 14 13 13 14 15 15 16 19 22 24 24 24 25 28 29 29 29 29 29 29 28 26 27 29 31 30 29 29 29 31 33 36 37 37 36 34 33 31 28 25 23 23 23 24 22 21 22 23 22 22 23 23 23 23 24 24 24 24 24 24 24 24 24 25 26 26 28 33
7 6 3 3 6 10 11 8 7 9 12 12 11 10 8 8 10 11 12 13 14 14 14 14 16 20 24 26 26 24 23 24 23 22 21 23 25 27 28 29 29 31 33 34 32 31 30 31 34 37 39 39 39 37 34 32 30 28 26 24 22 21 21 21 21 21 20 21 22 22 23 24 24 24 24 25 25 24 25 25 24 24 24 25 25 29 35
4 5 6 6 7 9 12 13 11 11 13 14 13 11 9 9 10 11 12 13 14 15 16 17 21 25 26 25 23 22 20 18 16 14 14 17 22 26 29 30 31 32 33 32 31 31 32 34 36 37 35 34 34 33 31 30 30 29 28 26 22 19 18 19 20 20 20 20 20 21 23 23 23 24 24 25 25 25 25 25 25 25 25 25 26 29 32
5 7 8 8 8 9 11 12 12 12 14 15 16 15 13 11 11 13 14 14 15 19 21 24 26 26 24 21 19 17 16 15 15 15 15 18 23 26 28 29 28 28 27 28 30 32 32 31 31 31 30 29 29 28 26 26 26 26 25 24 21 19 18 19 20 20 21 21 21 22 22 22 22 23 24 24 24 25 25 25 26 27 28 28 28 29 30
6 7 7 7 8 10 10 11 11 12 12 13 15 16 16 15 15 16 18 19 21 23 26 26 25 22 19 17 16 16 16 17 17 17 19 22 24 26 26 25 23 20 19 22 26 28 26 26 28 30 28 27 26 24 23 22 22 22 21 19 18 18 18 19 20 20 21 22 22 22 23 24 24 25 27 26 26 27 26 26 26 27 28 30 30 30 31
7 8 7 7 9 10 11 12 13 14 14 15 16 17 18 18 19 21 23 23 23 25 25 24 21 18 17 19 20 21 21 21 21 22 23 25 25 24 22 19 17 14 11 13 18 22 24 25 27 27 24 23 22 22 20 19 18 17 16 15 16 17 18 18 19 19 20 21 22 22 23 24 23 24 25 26 26 26 27 26 26 27 27 27 27 29 32
10 10 10 11 12 12 13 16 18 18 18 18 18 19 21 22 23 24 24 23 24 25 24 22 20 20 21 21 20 19 21 23 25 26 27 26 24 21 16 12 11 10 9 12 19 23 24 24 23 22 20 19 18 18 17 14 12 11 12 13 15 17 18 18 18 18 19 20 22 23 24 23 22 21 22 23 24 25 26 26 27 29 29 28 27 29 33
10 10 11 13 13 13 15 17 18 18 17 16 17 19 22 25 25 24 22 22 24 24 22 21 20 19 18 17 15 15 20 25 27 27 28 27 24 19 14 13 13 13 14 18 22 21 21 21 19 17 15 14 12 10 7 4 6 8 11 13 15 16 17 17 18 18 19 20 21 22 22 22 22 22 22 23 24 25 25 26 28 29 29 29 30 32 35
8 9 10 11 11 12 12 12 13 16 18 18 18 19 22 24 24 20 17 18 20 21 20 20 17 13 12 13 13 14 20 26 27 27 27 25 20 14 11 11 14 16 18 20 20 17 16 16 14 12 11 9 6 5 5 7 9 11 13 15 16 16 17 17 18 18 18 19 21 20 20 20 21 22 23 24 25 25 26 28 29 29 28 29 32 35 37
9 10 10 11 10 10 11 12 13 16 19 20 21 22 23 24 22 17 14 15 18 21 21 21 17 13 13 16 17 18 23 26 26 26 24 18 11 6 4 6 12 18 19 17 16 14 12 11 10 9 9 8 8 9 11 12 14 15 16 16 17 17 18 18 18 18 18 19 20 20 20 22 22 22 23 25 26 27 27 27 26 26 28 32 36 38 38
10 11 11 11 10 11 12 13 14 15 17 20 21 22 23 23 21 18 17 19 21 21 21 20 18 17 18 20 21 21 22 22 22 22 21 15 8 4 4 8 14 18 16 13 12 11 10 9 9 9 10 12 13 13 15 16 17 18 18 18 18 19 19 18 18 18 19 19 20 20 21 23 23 23 24 26 27 29 30 28 27 28 32 36 38 38 38
11 12 11 10 10 12 14 15 14 14 15 18 20 21 22 21 20 19 18 19 19 18 17 17 17 18 20 21 19 15 14 16 17 17 16 15 13 11 10 12 16 16 14 11 10 10 10 11 11 11 12 13 15 16 18 19 19 20 20 20 20 20 20 20 20 20 20 20 21 21 21 23 24 24 26 27 28 30 32 33 34 35 37 38 38 37 37
13 13 11 11 13 15 15 14 13 12 12 15 19 21 21 19 18 18 18 17 16 16 16 15 15 17 18 18 14 10 9 12 13 12 9 8 10 13 16 16 15 14 13 12 11 11 11 11 12 13 13 14 16 18 20 21 21 21 21 21 21 22 22 21 21 21 21 21 21 22 23 23 25 26 28 30 31 32 34 35 37 37 38 38 37 36 34
14 14 15 15 16 15 13 13 13 14 15 18 20 20 18 16 16 17 17 15 15 15 14 13 14 16 17 16 14 13 13 13 13 12 8 5 5 11 17 18 15 14 14 13 13 13 12 12 14 15 16 17 19 20 22 22 22 22 22 23 22 22 22 22 22 22 22 22 22 23 24 25 28 31 33 34 34 34 34 35 36 37 37 37 37 35 33
14 16 17 16 15 16 17 18 19 19 19 17 15 13 14 15 15 15 15 15 15 15 14 14 15 16 17 16 16 16 15 13 13 15 14 10 8 12 16 17 16 16 15 14 14 14 14 14 15 16 17 19 20 20 21 22 22 22 23 23 23 23 23 23 23 23 23 24 25 26 28 30 33 34 34 33 33 33 33 33 34 35 36 35 35 33 31
14 15 16 17 18 20 22 23 20 17 14 10 8 8 11 14 14 13 13 15 15 14 14 14 15 15 16 16 15 14 12 10 10 14 18 18 15 15 17 17 17 17 17 16 15 15 14 15 16 17 18 20 21 22 21 22 22 23 23 23 24 25 25 25 25 25 26 26 28 29 31 32 33 32 32 32 32 32 32 32 34 34 34 33 32 31 30
14 15 17 20 21 21 21 18 14 10 8 7 7 9 11 14 13 13 13 14 14 13 13 14 14 15 16 16 15 14 13 9 7 10 16 19 18 16 17 17 17 17 17 18 17 17 17 17 18 20 21 21 22 23 24 24 25 26 26 26 26 28 29 30 30 30 30 30 32 32 32 32 31 31 31 32 31 31 32 33 34 33 32 31 30 29 27
17 18 19 18 17 16 14 10 6 5 6 8 9 10 12 12 11 10 10 11 11 11 12 12 13 15 16 15 14 15 16 13 9 10 14 17 17 16 17 17 17 18 18 18 18 19 20 21 22 24 24 24 24 25 26 27 28 29 28 28 27 28 30 31 31 31 32 32 32 32 32 31 31 31 31 30 30 31 31 32 32 30 29 29 28 26 24
16 15 13 11 10 10 9 7 5 6 8 9 9 10 10 9 7 7 9 10 9 9 10 11 12 14 15 15 15 16 16 16 15 15 15 16 17 17 17 18 18 19 19 19 19 20 21 23 25 26 26 26 27 27 27 28 28 29 29 28 28 28 29 30 30 31 32 31 31 31 31 30 30 30 30 29 29 29 29 29 28 27 26 25 24 22 21
14 12 10 10 10 10 10 10 9 10 10 10 10 9 8 7 6 7 9 10 9 8 8 9 10 13 14 15 15 16 16 16 16 16 17 17 18 18 19 19 20 20 20 21 21 21 22 24 25 26 27 28 28 27 27 28 28 28 28 28 28 28 28 29 30 30 30 30 30 30 30 29 29 29 28 27 27 26 26 25 25 24 22 21 20 19 18
17 14 11 10 10 10 11 12 12 11 11 10 10 8 7 7 6 7 8 10 10 9 7 6 8 11 13 14 14 14 15 15 15 15 16 17 17 18 19 20 21 21 22 22 22 23 24 25 26 28 28 29 29 28 28 28 28 28 27 27 26 26 27 27 28 28 28 28 28 28 27 27 27 26 26 25 24 24 23 23 22 21 20 19 17 16 15
Wind_Direction
240 243 250 252 252 254 253 254 258 259 257 253 251 253 254 253 255 258 255 256 259 256 248 250 255 261 265 270 277 280 281 280 278 278 279 278 278 281 281 268 260 251 248 251 249 245 243 239 241 241 238 237 236 236 240 240 235 230 224 217 216 216 215 217 219 219 219 218 217 216 214 212 210 208 207 205 204 204 203 202 203 203 202 202 201 201 202
248 242 244 245 247 251 250 249 250 250 253 253 251 252 255 254 256 261 262 258 257 256 252 250 252 258 266 272 275 276 278 280 281 285 291 298 304 313 319 306 291 273 260 258 258 256 252 245 242 241 238 238 238 237 240 239 235 231 223 215 215 214 214 218 220 219 217 215 213 212 210 209 208 205 203 202 201 201 201 201 200 200 200 200 200 200 200
257 249 247 244 242 245 248 249 248 248 249 250 251 252 254 256 258 260 260 260 259 257 256 256 256 257 262 267 270 273 278 285 298 317 340 355 354 353 351 344 337 328 308 287 274 269 264 259 252 243 241 244 243 241 240 239 236 232 222 215 215 214 216 219 219 215 212 210 208 208 207 206 204 202 200 199 198 198 198 197 198 198 197 197 198 199 199
258 251 249 250 250 248 247 247 246 246 245 245 247 247 245 247 252 255 258 260 264 267 266 265 267 269 269 271 276 287 307 333 358 13 19 16 7 1 356 353 352 349 341 327 308 290 276 271 268 262 257 252 246 242 242 241 238 231 221 217 216 216 218 219 215 210 207 205 203 203 203 202 201 199 198 197 196 196 195 195 195 195 195 195 196 197 197
278 268 263 266 263 251 244 239 238 239 240 242 244 244 245 246 249 257 262 267 298 327 334 333 326 321 315 313 327 0 11 16 21 19 15 9 3 358 352 349 349 349 348 344 332 318 302 290 284 280 275 265 252 248 247 243 237 226 219 218 218 218 219 215 210 207 204 200 200 200 199 198 197 195 195 195 195 195 194 193 193 193 193 194 194 195 196
285 287 290 288 269 258 254 225 229 238 243 246 248 252 257 264 283 312 328 359 12 11 10 5 353 338 329 343 43 54 37 20 9 2 2 1 355 352 348 345 345 343 342 342 338 335 329 316 303 294 290 283 270 262 255 242 230 221 217 216 216 218 216 212 208 204 200 198 197 197 196 194 193 193 193 194 194 193 192 191 191 192 192 193 194 195 196
275 282 286 273 258 265 266 97 7 290 270 278 283 276 284 331 357 7 19 23 18 11 3 360 353 334 323 338 69 51 32 20 5 354 351 350 348 346 343 340 338 336 337 337 336 336 335 330 322 310 302 297 286 275 262 242 227 219 213 212 214 214 212 208 205 201 198 196 194 193 192 191 191 191 192 192 191 191 191 191 192 193 192 193 194 194 196
269 272 263 257 267 276 189 69 27 11 3 358 347 332 21 24 9 9 23 18 11 8 0 357 353 337 322 303 79 38 21 11 2 352 345 343 342 339 337 335 332 330 329 329 329 330 332 334 333 326 316 309 295 278 263 242 226 215 209 209 210 209 206 204 202 199 196 193 191 190 189 188 189 190 190 190 190 189 190 191 192 193 193 193 193 193 194
247 259 256 260 272 268 225 48 15 12 359 335 321 274 60 32 10 4 17 12 8 8 0 354 350 340 328 310 8 15 9 1 355 349 341 336 334 332 330 328 326 325 325 327 328 329 331 333 335 334 331 325 307 278 259 238 223 212 204 206 207 205 204 203 201 199 196 192 189 188 187 187 189 190 189 189 189 187 187 188 190 191 192 192 192 192 192
257 271 271 274 271 266 308 336 308 324 294 274 260 229 178 35 13 3 11 12 7 2 356 354 352 345 342 338 342 354 354 350 347 343 337 335 332 330 328 327 327 327 327 328 328 329 331 331 333 337 337 334 330 318 274 229 214 205 202 207 208 205 205 204 201 198 196 193 190 188 187 188 189 188 188 187 187 187 187 188 189 190 190 190 191 193 193
288 282 279 287 277 285 22 327 305 326 308 292 279 220 183 41 14 359 10 12 6 360 352 352 356 353 346 333 328 340 343 340 341 337 331 331 329 326 325 324 324 324 324 325 327 330 331 330 331 334 334 331 336 334 285 231 209 207 211 212 208 206 206 204 201 198 196 194 192 189 189 190 188 186 185 185 186 187 187 188 188 188 188 188 189 191 193
288 286 278 283 280 66 5 332 335 333 307 297 307 243 255 30 14 359 9 4 359 1 352 349 357 354 335 319 317 326 328 324 327 326 321 322 323 322 323 323 322 322 322 324 327 329 328 327 328 329 327 322 319 308 267 235 225 226 227 220 212 210 207 203 200 198 196 195 194 192 190 189 187 185 184 184 183 185 186 187 186 186 187 188 188 189 191
285 285 280 284 268 96 7 345 345 339 325 350 74 284 313 9 358 355 8 354 346 351 343 339 342 324 304 302 304 311 316 317 319 318 314 314 314 313 316 318 320 322 321 322 324 322 322 326 327 327 324 317 312 313 303 274 269 266 252 231 219 212 206 201 199 197 196 196 195 194 191 187 184 184 185 184 183 183 184 184 183 183 184 186 186 187 189
294 288 290 288 264 59 18 353 344 355 5 350 313 307 317 342 325 340 357 338 330 329 319 316 310 295 293 296 296 304 313 314 315 316 316 316 314 314 316 317 319 321 320 321 323 321 323 326 326 325 323 313 311 317 312 302 303 300 276 245 223 208 201 198 197 195 196 197 196 193 191 186 183 182 183 184 184 182 182 182 181 181 182 182 182 183 184
288 276 274 275 265 331 5 351 344 18 50 272 296 319 178 252 303 322 328 321 320 316 310 307 303 301 303 301 300 307 311 311 313 313 314 315 314 315 318 319 322 324 321 320 321 320 321 323 323 323 320 309 309 313 306 307 316 311 278 256 225 208 200 195 195 195 195 196 195 192 189 186 183 181 181 182 182 181 181 180 178 179 180 179 179 179 180
283 262 257 273 296 324 342 342 329 321 275 239 261 261 226 239 257 271 299 305 300 302 306 305 304 305 304 303 308 311 309 311 313 310 310 313 313 314 315 317 321 324 322 319 319 317 317 319 320 321 318 308 304 305 301 305 309 300 279 259 223 212 203 195 195 195 194 194 194 191 188 185 182 180 179 180 180 181 181 179 178 178 180 180 179 179 180
254 241 261 288 309 311 309 307 281 263 242 190 168 200 233 243 236 237 275 295 295 300 303 302 303 303 304 309 314 312 307 307 308 307 310 311 311 312 314 316 321 323 320 317 316 314 315 318 320 320 318 310 300 299 303 305 301 292 280 255 228 217 207 200 198 195 193 193 193 191 189 186 183 181 180 179 180 182 182 182 181 181 181 183 184 182 181
258 253 257 273 289 287 287 292 270 225 214 188 173 190 230 256 256 252 260 276 287 298 302 301 300 300 304 308 307 304 303 302 302 303 304 305 308 310 312 315 319 321 319 318 317 315 315 316 318 318 317 310 299 299 304 304 295 286 272 248 234 222 209 204 200 195 192 192 192 192 190 188 188 186 183 182 183 184 185 186 186 185 184 186 187 185 184
262 264 257 261 271 275 280 286 268 234 219 194 180 201 236 252 257 261 267 273 284 294 296 295 295 296 301 305 303 304 304 300 300 302 300 302 307 308 309 313 317 319 319 317 316 314 311 311 314 315 313 308 303 303 304 300 289 277 261 241 232 223 213 206 200 196 194 192 191 192 191 190 190 189 188 188 186 186 188 189 190 190 188 187 187 186 185
236 253 266 269 267 268 275 277 262 237 208 193 207 226 230 235 251 261 268 276 287 291 288 288 293 294 295 297 299 304 305 299 298 299 298 301 304 304 306 311 315 317 316 312 311 310 306 307 311 311 307 305 305 305 304 297 284 268 252 238 229 223 216 209 203 200 198 195 193 193 194 194 193 192 192 192 192 194 195 192 190 191 190 190 191 189 183
256 263 267 270 273 273 269 258 243 223 195 197 232 247 234 230 253 272 278 279 283 288 287 287 287 285 286 290 295 298 298 296 295 295 298 303 303 301 305 310 312 311 308 305 306 304 300 302 306 304 302 303 307 309 307 299 283 262 251 240 227 220 214 208 205 203 201 200 197 196 196 199 200 200 198 198 200 204 204 200 197 195 194 194 194 190 184
265 262 251 247 260 275 273 253 225 212 197 195 240 262 257 246 252 271 286 288 286 282 281 285 287 284 285 291 295 294 290 289 291 294 299 303 301 301 306 311 310 307 304 304 303 298 295 297 300 300 300 302 303 306 308 302 285 265 253 240 227 218 211 206 205 202 200 201 200 198 198 201 203 206 208 207 208 213 214 211 208 204 201 199 196 190 186
253 259 255 239 227 259 274 265 211 205 227 264 261 259 260 265 267 269 280 287 290 287 280 276 278 285 289 293 295 294 289 287 290 295 297 298 297 300 305 307 306 306 305 304 301 295 294 296 297 297 298 297 295 296 300 298 287 269 254 240 229 220 213 209 207 203 200 201 200 199 201 201 200 203 207 211 215 220 220 217 214 211 209 205 198 192 189
259 268 269 252 225 248 267 276 189 236 286 291 261 257 262 273 278 276 270 273 276 279 283 283 280 282 289 292 293 292 290 289 293 297 298 297 295 298 301 302 302 302 301 299 295 293 294 297 297 295 294 291 289 291 293 292 285 270 253 241 234 228 220 214 210 205 201 200 198 196 198 199 199 199 198 201 209 216 218 213 209 208 207 202 196 193 191
263 275 280 259 242 257 278 325 323 287 42 75 331 311 298 282 280 281 280 278 269 263 273 283 285 284 282 283 288 290 290 290 292 295 297 296 295 297 298 299 300 299 296 294 292 290 292 294 294 293 290 287 287 288 288 285 280 269 255 244 239 236 228 217 209 204 201 199 196 195 195 195 195 195 193 192 195 197 199 199 199 201 202 197 190 186 184
293 343 37 2 280 268 273 309 296 307 34 20 332 304 291 284 282 279 279 279 276 271 271 277 283 285 280 276 282 286 285 286 290 292 292 290 292 293 294 296 297 296 295 293 290 289 290 290 289 289 286 283 286 290 288 282 278 270 260 250 244 241 233 221 210 204 202 199 197 196 197 195 194 194 194 193 188 181 180 182 186 190 191 189 184 177 173
62 37 23 308 281 272 207 121 316 326 331 319 301 286 284 287 288 287 284 277 272 272 271 272 279 284 284 280 280 282 282 284 288 289 285 282 284 286 289 291 292 291 291 290 288 288 290 288 286 284 281 281 285 290 287 282 277 271 263 255 249 246 238 225 215 207 204 201 198 196 195 195 194 194 193 191 187 183 180 178 177 176 174 175 176 172 167
52 33 36 288 271 282 302 319 311 305 296 289 287 289 293 294 292 288 287 285 282 276 273 275 279 282 286 289 287 284 285 286 284 283 282 282 284 286 288 289 288 287 286 284 284 287 287 284 281 279 278 280 287 289 286 284 280 272 264 257 252 248 239 227 217 210 205 201 197 195 194 192 192 192 191 189 187 185 183 179 172 165 160 160 163 163 161
27 16 4 266 264 281 294 298 294 287 283 288 291 289 294 300 298 292 290 294 299 297 293 291 289 284 285 291 292 288 287 286 284 284 285 285 287 289 290 290 288 286 281 278 279 280 279 275 273 274 276 283 290 289 285 285 282 275 267 258 252 247 238 227 217 210 205 200 196 194 192 189 188 188 187 187 186 183 181 176 168 161 156 154 153 154 156
350 331 298 279 274 281 287 292 292 290 292 294 294 288 284 285 288 290 294 299 302 300 301 303 300 295 292 291 289 287 285 285 285 286 286 287 289 290 290 291 290 287 282 279 278 276 274 275 276 277 282 288 292 289 286 283 278 273 266 257 250 245 239 228 215 206 202 196 191 190 187 185 186 185 184 184 184 181 178 173 166 161 159 157 156 154 155
318 303 281 269 272 286 288 291 292 289 284 284 290 294 294 289 287 291 297 301 303 301 303 305 303 301 299 296 293 290 287 285 286 287 288 289 290 290 288 287 284 282 282 284 284 282 284 284 281 280 285 289 289 286 285 284 282 279 271 261 253 247 241 229 212 202 198 191 185 184 183 182 183 183 181 181 181 179 176 170 165 163 161 159 158 156 153
324 311 284 271 309 303 289 281 281 286 292 294 292 293 297 299 297 297 299 303 303 303 304 304 301 301 302 301 298 294 289 287 286 287 289 289 288 287 286 283 278 278 282 284 285 286 285 283 280 283 289 290 286 283 281 278 277 276 271 264 256 248 238 225 206 197 194 188 183 182 181 180 181 180 179 180 178 175 171 166 163 163 161 159 157 155 152
342 334 324 328 326 312 301 292 280 285 296 299 293 290 295 297 294 293 296 300 301 301 302 301 299 301 301 300 297 295 292 290 287 286 286 286 285 286 287 285 282 281 282 283 284 285 284 284 285 289 291 289 285 282 278 273 270 269 267 262 254 243 231 215 200 191 186 184 184 183 180 179 180 178 178 178 174 169 167 163 160 158 156 153 152 152 153
317 299 292 297 301 299 299 300 299 301 304 302 297 298 300 297 294 295 296 297 298 299 300 300 300 300 299 296 295 294 293 291 290 287 284 285 286 289 289 287 284 282 281 282 285 287 286 286 288 291 292 291 287 283 277 272 268 266 263 258 248 233 216 201 190 184 179 179 181 180 178 179 180 178 176 173 168 164 161 158 154 151 148 147 150 152 151
284 278 279 282 278 273 278 285 290 295 299 299 299 302 302 300 301 299 297 298 298 298 299 299 297 296 296 294 293 293 290 288 289 289 289 290 291 291 291 288 284 282 283 284 286 287 287 288 293 298 299 298 294 289 282 275 268 263 258 251 237 217 200 189 184 180 176 175 175 174 174 175 174 171 169 165 160 158 156 154 152 150 148 147 150 150 147
282 283 280 277 276 273 271 273 278 282 284 287 291 295 297 298 300 298 297 298 298 297 297 297 295 294 295 294 292 292 291 290 290 290 292 294 293 292 291 288 285 286 287 286 288 290 292 297 304 307 305 300 297 294 288 280 272 264 254 238 216 196 185 180 176 173 171 170 170 169 170 168 165 164 162 160 157 156 155 153 151 151 150 151 151 147 144
285 284 281 280 280 276 273 274 277 279 280 280 282 286 290 293 295 295 295 296 295 294 294 294 293 293 294 294 293 293 292 292 293 295 295 295 295 294 292 289 289 290 286 288 297 303 305 307 309 310 307 304 302 300 294 286 273 257 236 211 189 176 170 166 163 163 163 164 163 161 160 159 158 158 159 158 156 155 153 150 149 149 151 151 148 144 145
288 284 281 283 284 281 279 280 279 278 279 280 280 282 285 289 292 294 293 292 293 292 290 286 285 289 293 296 296 295 294 297 299 300 299 299 299 298 294 291 292 292 293 303 310 311 310 311 314 314 312 311 308 303 297 285 262 231 200 179 168 162 158 155 154 153 154 155 154 153 153 152 151 151 151 152 151 150 149 148 148 150 150 146 142 143 147
295 291 286 285 285 284 284 284 282 279 278 281 283 285 287 289 292 291 288 286 288 289 286 286 289 293 296 299 299 298 302 306 307 306 304 303 301 299 294 290 294 302 312 315 314 311 310 314 317 318 320 322 321 316 304 259 197 171 157 151 149 147 146 146 144 143 144 146 146 147 148 148 146 145 145 145 145 144 144 144 145 147 145 142 141 145 150
300 298 295 292 291 289 288 289 289 287 285 284 284 286 290 293 293 289 282 282 288 292 295 298 299 298 299 304 305 306 309 311 310 309 309 307 304 301 296 295 305 317 323 321 317 316 319 324 327 332 339 347 359 25 66 110 126 127 127 131 132 131 132 134 133 133 136 138 138 138 139 139 138 138 139 140 140 139 140 141 143 144 143 142 144 148 152
298 297 296 294 294 294 294 294 294 294 292 288 285 286 290 292 291 288 285 291 301 306 306 304 304 307 312 313 312 310 310 311 310 311 313 312 307 300 295 307 321 328 328 326 326 330 334 339 346 358 14 35 59 76 87 98 106 109 111 115 117 118 121 123 124 127 131 132 133 134 134 133 133 133 136 138 139 139 140 141 142 143 144 145 148 151 151
298 297 297 298 298 297 296 296 295 294 293 292 290 292 294 294 292 293 297 304 308 309 308 310 316 321 320 317 313 311 310 312 313 316 320 323 325 320 305 315 327 332 332 333 341 351 0 10 22 40 57 67 74 84 93 97 98 100 102 104 106 110 112 114 116 120 123 124 126 128 130 131 131 132 135 139 142 143 142 142 142 143 146 149 151 152 151
299 299 300 301 299 298 298 298 295 293 293 295 296 298 300 299 298 300 304 307 308 309 314 322 329 329 323 319 316 314 314 316 319 321 325 331 339 346 341 331 333 340 347 356 10 24 35 43 55 70 82 84 86 92 96 95 95 97 100 102 104 106 107 109 112 115 118 120 121 125 128 131 133 135 138 141 142 144 144 144 144 146 149 152 153 152 151
301 300 299 296 297 299 299 296 294 293 294 297 300 301 301 302 305 308 308 308 312 320 327 330 329 328 327 327 325 319 317 322 328 332 331 329 341 353 354 350 349 356 7 20 34 41 46 57 73 88 97 100 103 104 103 100 99 100 101 102 103 105 105 107 110 112 116 119 122 125 129 132 135 138 140 140 140 141 142 144 146 148 150 151 151 150 150
298 298 297 296 296 297 294 292 294 295 293 293 295 298 301 305 309 312 314 316 323 330 333 329 324 326 331 334 333 330 330 337 346 349 346 333 333 347 354 0 9 18 24 32 41 44 49 64 82 92 97 101 104 105 104 103 103 104 104 104 105 106 106 108 111 112 115 119 123 127 131 134 137 139 140 140 140 140 142 144 148 151 151 150 149 149 150
298 299 300 297 294 293 293 293 294 293 290 290 292 298 306 311 314 316 320 326 329 331 331 330 330 333 338 342 342 339 340 349 1 5 4 3 356 355 2 15 27 32 34 39 44 47 56 71 82 87 91 94 95 96 98 99 102 104 105 106 107 107 108 110 113 115 117 121 125 128 132 135 136 137 137 138 139 141 143 146 149 150 150 149 149 150 152
301 302 301 298 295 295 297 298 296 292 289 290 296 305 312 317 319 321 326 330 330 330 332 335 339 344 349 353 354 351 346 346 357 7 12 14 13 14 21 29 35 38 42 45 46 51 63 76 82 85 89 92 91 91 93 94 97 100 102 104 106 109 110 111 113 115 117 120 123 126 129 132 134 135 136 138 140 142 144 146 147 148 148 149 151 152 153
304 303 302 300 299 299 299 299 297 294 295 300 304 308 314 320 323 325 329 330 331 333 337 341 347 353 358 0 3 6 7 2 353 0 9 14 18 21 24 28 32 37 42 45 49 58 72 82 85 87 89 90 89 90 92 93 95 98 100 101 104 109 112 114 117 118 120 123 127 129 131 133 136 138 139 141 144 145 146 146 147 148 150 151 152 153 155
308 306 304 303 303 304 304 302 299 304 309 310 310 313 318 323 325 327 329 332 335 339 344 347 352 358 1 3 7 13 18 22 20 11 12 18 24 26 28 32 37 40 43 47 52 61 72 81 85 86 86 86 86 88 92 94 96 99 100 101 105 111 114 117 119 122 124 127 130 132 134 136 139 140 142 144 145 146 146 146 147 149 150 151 152 153 155
315 312 309 306 305 309 313 316 316 315 315 316 319 323 327 330 332 332 334 338 341 343 346 353 0 4 6 9 12 16 20 25 27 24 24 29 34 36 37 39 42 45 49 53 55 59 67 74 78 81 83 84 85 87 89 92 95 98 100 102 106 111 114 117 120 123 126 129 132 133 136 139 141 142 143 144 144 144 144 145 146 148 150 151 152 154 156
318 309 303 305 311 316 320 324 326 325 325 326 326 328 333 340 342 339 342 347 350 346 344 354 5 9 10 12 16 19 23 27 29 31 33 37 40 43 45 47 49 51 54 56 57 59 63 69 74 79 82 84 85 87 89 91 94 97 100 104 108 112 117 121 124 126 130 133 135 136 138 140 141 142 142 143 143 143 143 144 146 148 151 153 155 156 158
328 323 324 330 333 333 336 340 343 344 344 340 337 339 348 353 350 348 352 358 0 358 352 352 4 12 14 16 20 25 30 35 39 40 42 44 46 48 51 54 55 57 59 60 61 64 66 70 75 79 82 83 84 87 89 91 93 96 99 103 108 112 117 122 125 126 129 131 133 135 137 140 141 141 142 142 142 143 145 146 149 151 153 156 158 161 163